Location: Sungai Bunut
(2.6333°N, 113.7333°E)
Time: 03:40:18
(UTC+00:00)

ISS - Visible Passes

Search period start: 01 December 2023 00:00
Search period end: 11 December 2023 00:00
Orbit: 416 x 417 km, 51.6° (Epoch: 30 November)

Date Brightness Start Highest point End Pass type
(mag) Time Alt. Az. Time Alt. Az. Time Alt. Az.
07 Dec -1.9 11:15:31 10° N 11:16:43 17° NNE 11:16:43 17° NNE visible
08 Dec -1.3 12:03:25 10° WNW 12:06:08 23° SW 12:07:28 18° SSW visible
09 Dec -3.1 11:14:10 10° NW 11:17:27 58° SW 11:20:43 10° SSE visible
